Weather Roundup
Issued by NWS Corpus Christi, TX

Home | Current Version | Previous Version | Text Only | Print | Product List | Glossary On
Versions: 1 2 3 4 5 6 7 8 9 10 11 12 13 14 15 16 17 18 19 20 21 22 23 24 25 26 27 28 29 30 31 32 33 34 35 36 37 38 39 40 41 42 43 44 45 46 47 48 49 50
000
ASUS44 KCRP 250710
HRRCRP

SOUTH TEXAS REGIONAL WEATHER ROUNDUP
NATIONAL WEATHER SERVICE CORPUS CHRISTI TX
200 AM CDT THU MAY 25 2017


TXZ229>244-250800-
...CORPUS CHRISTI AREA OBSERVATIONS...

CITY           SKY/WX    TMP DP  RH WIND       PRES   REMARKS
CORPUS CHRISTI CLEAR     62  60  93 S6        29.78S
NAS CORPUS CHR CLEAR     75  63  66 S12       29.78S
ROCKPORT       CLEAR     75  59  57 S9        29.78S
KINGSVILLE NAS CLEAR     63  60  90 S7        29.78S
ALICE          CLEAR     62  55  77 S6        29.78S
ORANGE GROVE   CLEAR     61  57  87 S7        29.79S
FALFURRIAS     CLEAR     65  57  75 S3        29.79S
$$

...VICTORIA AREA OBSERVATIONS...

CITY           SKY/WX    TMP DP  RH WIND       PRES   REMARKS
VICTORIA       CLEAR     66  61  84 S6        29.78S
BEEVILLE       FAIR      64  60  85 S3        29.78F
PLEASANTON     CLEAR     64  54  71 CALM      29.77F
SAN ANTONIO    CLEAR     69  50  50 S9        29.77F
$$

...LAREDO AREA OBSERVATIONS...

CITY           SKY/WX    TMP DP  RH WIND       PRES   REMARKS
LAREDO         CLEAR     71  54  54 SE14      29.76S
COTULLA        CLEAR     68  53  58 SE9       29.76S
DEL RIO        CLEAR     66  51  58 E7        29.72F
MCALLEN        CLEAR     70  60  70 SE8       29.80S
HEBBRONVILLE   CLEAR     67  51  57 S9        29.79F
$$

...OTHER TEXAS OBSERVATIONS...

CITY           SKY/WX    TMP DP  RH WIND       PRES   REMARKS
BROWNSVILLE    CLEAR     69  62  78 SE9       29.81S
HOUSTON        CLEAR     67  52  58 S7        29.76F
COL. STATION   CLEAR     63  54  72 S3        29.74F
AUSTIN         PTCLDY    61  54  77 SW5       29.74F
WACO           CLEAR     69  51  52 S13       29.69F
FORT WORTH     PTCLDY    64  50  60 E7        29.70R
WICHITA FALLS  CLEAR     59  49  69 E7        29.66S
LUBBOCK        CLEAR     69  39  33 S18       29.67F
EL PASO        CLEAR     85  12   6 W7        29.78R
$$

...MARINE OBSERVATIONS...

STATION/POSITION TIME  SKY/WX   TEMP    WIND        PRES    VSBY  WAVE   SWELL
                                AIR SEA DIR/SP/G                  HT/PER HT/PER
                 (UTC)          (F)     (DEG/KT/KT) (MB)    (MI)  (FT/S) (FT/S)
PORT ARANSAS     0600            77 79  160/ 19/ 21 1008.5F
BUOY 90 E PORT A 0550            77 79  190/ 12/ 14 1009.1          1/ 7
BUOY 45 SE BAFFI 0650            78     160/ 17/ 19 1008.1F         3/ 7   2/ 7
BUOY 200 E PT IS 0550            77 80  110/  8/ 10 1011.1          4/ 6   3/ 6
BUOY 15 E GALVES 0550            77 78   90/  8/  8 1008.6          1/ 4   2/ 4
$$




USA.gov is the U.S. government's official web portal to all federal, state and local government web resources and services.